Tiempo atmosférico en la estación meteorológica de San Bartolome Tirajana, Cuevas del Pinar, Las Palmas (1220 m.)



Fecha
DESCASC
Temp. máxima en grados centígrados (hora)
DESCASC
Temp. mínima en grados centígrados (hora)
DESCASC
Temp. media en grados centígrados
DESCASC
Racha de viento máxima en m/sg (hora)
DESCASC
Velocidad máxima media en intervalos de 10 minutos(hora)
DESCASC
Precipitaciones diarias en mm
DESCASC
Precipitaciones de 00:00 a 06:00 en mm
DESCASC
Precipitaciones de 06:00 a 12:00 en mm
DESCASC
Precipitaciones de 12:00 a 18:00 en mm
DESCASC
Precipitaciones de 18:00 a 24:00 en mm
DESCASC
06-07-2020 37 (15:00) 28.3 (04:20) 32.6 8.33 (12:30) 3.61 (10:50) 0 0 0 0 0
05-07-2020 34.8 (17:00) 27.4 (07:40) 31.1 6.94 (14:10) 3.61 (18:10) 0 0 0 0 0
04-07-2020 33 (18:40) 28 (04:30) 30.5 6.11 (16:30) 3.89 (16:30) 0 0 0 0 0
03-07-2020 34.2 (12:10) 27.7 (06:40) 31 6.94 (15:50) 3.89 (13:30) 0 0 0 0 0
02-07-2020 34.8 (17:50) 28.3 (00:00) 31.5 10.28 (16:20) 4.72 (16:20) 0 0 0 0 0
01-07-2020 35.5 (16:30) 24.7 (00:00) 30.1 6.11 (09:00) 5 (09:00) 0 0 0 0 0
30-06-2020 28.8 (14:40) 20 (00:00) 24.4 6.67 (16:30) 3.61 (22:20) 0 0 0 0 0
29-06-2020 26.9 (17:10) 19.6 (00:00) 23.3 8.61 (15:10) 3.06 (17:40) 0 0 0 0 0
28-06-2020 27.9 (16:20) 20.7 (00:00) 24.3 7.22 (14:00) 3.61 (15:00) 0 0 0 0 0
27-06-2020 27.7 (16:10) 19.5 (00:00) 23.6 6.11 (15:20) 3.33 (17:50) 0 0 0 0 0
26-06-2020 25.1 (15:30) 17.4 (00:00) 21.3 8.06 (15:50) 3.61 (13:10) 0 0 0 0 0
25-06-2020 24.9 (16:30) 18.1 (00:00) 21.5 8.06 (16:30) 3.89 (13:40) 0 0 0 0 0
24-06-2020 25.7 (12:00) 18.8 (00:00) 22.3 7.22 (13:50) 3.89 (13:40) 0 0 0 0 0
23-06-2020 27.2 (14:30) 19.4 (00:00) 23.3 9.17 (17:00) 3.61 (16:30) 0 0 0 0 0
22-06-2020 26.6 (16:00) 20.2 (00:00) 23.4 7.22 (15:50) 3.61 (12:40) 0 0 0 0 0
21-06-2020 26 (16:50) 19.3 (00:00) 22.6 7.78 (16:00) 3.61 (12:50) 0 0 0 0 0
20-06-2020 24.2 (18:00) 15.1 (00:00) 19.7 8.06 (16:10) 3.89 (15:30) 0 0 0 0 0
19-06-2020 22 (17:20) 12.1 (00:00) 17.1 7.22 (17:30) 3.61 (13:50) 0 0 0 0 0
18-06-2020 19.3 (18:40) 13.5 (00:00) 16.4 7.78 (21:40) 4.17 (21:20) 0 0 0 0 0
17-06-2020 25.1 (12:30) 15.7 (00:00) 20.4 16.67 (00:10) 7.78 (00:10) 0 0 0 0 0
16-06-2020 25.6 (14:50) 20.7 (00:00) 23.2 18.89 (18:20) 9.44 (20:40) 0 0 0 0 0
15-06-2020 24.5 (14:10) 19 (00:00) 21.8 18.33 (18:50) 8.33 (19:00) 0.4 0.4 0 0 0
14-06-2020 25 (18:30) 12.7 (00:00) 18.8 6.94 (20:40) 3.61 (20:40) 1 0 0 0 1
13-06-2020 21.8 (14:10) 11.6 (00:00) 16.7 8.89 (03:20) 4.17 (00:40) 0 0 0 0 0
12-06-2020 19.9 (17:00) 11.9 (00:00) 15.9 8.89 (20:10) 4.17 (01:30) 0 0 0 0 0
11-06-2020 21 (11:10) 13.9 (00:00) 17.4 8.61 (23:50) 4.44 (22:00) 0 0 0 0 0

Gráficas

Temp. máximas Temp. mínimas Temp. medias Precipitaciones Rachas de viento máximas Velocidades máximas media en intervalos de 10 minutos

Datos horarios

Fecha y hora oficial Temperatura (ºC) Velocidad del viento (km/h) Dirección del viento Racha (km/h) Dirección de racha Precipitación (mm) Presión (hPa) Tendencia (hPa) Humedad (%)
2020-07-10 23:00:00 23.6 5 Este 9 Sur 0 -- -- 19
2020-07-10 22:00:00 24.8 0 Calma 9 Sur 0 -- -- 28
2020-07-10 21:00:00 26.6 0 Calma 22 Sudoeste 0 -- -- 26
2020-07-10 20:00:00 28.4 8 Oeste 20 Norte 0 -- -- 14
2020-07-10 19:00:00 29.2 9 Nordeste 27 Norte 0 -- -- 15
2020-07-10 18:00:00 29.3 10 Norte 26 Nordeste 0 -- -- 17
2020-07-10 17:00:00 29.4 12 Nordeste 32 Norte 0 -- -- 13
2020-07-10 16:00:00 29.7 11 Nordeste 31 Nordeste 0 -- -- 14
2020-07-10 15:00:00 30.1 11 Oeste 22 Norte 0 -- -- 15
2020-07-10 14:00:00 29.8 10 Noroeste 24 Este 0 -- -- 28
2020-07-10 13:00:00 29.5 9 Oeste 25 Sudeste 0 -- -- 14
2020-07-10 12:00:00 28.7 8 Sudoeste 25 Sudoeste 0 -- -- 15
2020-07-10 11:00:00 27.9 8 Noroeste 26 Noroeste 0 -- -- 16
2020-07-10 10:00:00 27.2 4 Oeste 22 Sudoeste 0 -- -- 17
2020-07-10 09:00:00 25.3 11 Sur 32 Sudoeste 0 -- -- 20
2020-07-10 08:00:00 24.3 9 Nordeste 27 Este 0 -- -- 21
2020-07-10 07:00:00 24.8 13 Este 36 Noroeste 0 -- -- 20
2020-07-10 06:00:00 24.8 15 Norte 38 Nordeste 0 -- -- 21
2020-07-10 05:00:00 24.6 16 Norte 42 Norte 0 -- -- 22
2020-07-10 04:00:00 24.8 23 Norte 45 Nordeste 0 -- -- 20
2020-07-10 03:00:00 24.9 18 Nordeste 53 Nordeste 0 -- -- 15
2020-07-10 02:00:00 25.7 12 Nordeste 46 Nordeste 0 -- -- 16
2020-07-10 01:00:00 25.6 18 Nordeste 46 Nordeste 0 -- -- 21
2020-07-10 00:00:00 26 23 Nordeste 51 Nordeste 0 -- -- 21
2020-07-09 23:00:00 26.9 20 Nordeste 45 Norte 0 -- -- 15
2020-07-09 22:00:00 27.9 18 Nordeste 43 Nordeste 0 -- -- 10
2020-07-09 21:00:00 29.4 15 Nordeste 41 Nordeste 0 -- -- 7
2020-07-09 20:00:00 31.4 11 Nordeste 41 Este 0 -- -- 7
2020-07-09 19:00:00 33.2 10 Noroeste 23 Noroeste 0 -- -- 7
2020-07-09 18:00:00 33.5 9 Norte 35 Noroeste 0 -- -- 8
2020-07-09 17:00:00 33.8 13 Noroeste 39 Noroeste 0 -- -- 9
2020-07-09 16:00:00 34.1 15 Noroeste 32 Noroeste 0 -- -- 11
2020-07-09 15:00:00 34.1 13 Noroeste 45 Norte 0 -- -- 10
2020-07-09 14:00:00 34.1 12 Noroeste 41 Nordeste 0 -- -- 11
2020-07-09 13:00:00 32.6 18 Norte 42 Nordeste 0 -- -- 10
2020-07-09 12:00:00 32.6 18 Norte 40 Nordeste 0 -- -- 11
2020-07-09 11:00:00 31.6 19 Noroeste 42 Noroeste 0 -- -- 12
2020-07-09 10:00:00 30.6 19 Noroeste 40 Nordeste 0 -- -- 12
2020-07-09 09:00:00 30.2 16 Norte 39 Noroeste 0 -- -- 13
2020-07-09 08:00:00 29.5 18 Norte 39 Norte 0 -- -- 14
2020-07-09 07:00:00 29.5 15 Norte 33 Norte 0 -- -- 15
2020-07-09 06:00:00 29.4 16 Norte 31 Nordeste 0 -- -- 14
2020-07-09 05:00:00 30 15 Norte 40 Nordeste 0 -- -- 14
2020-07-09 04:00:00 29.9 21 Nordeste 35 Nordeste 0 -- -- 14
2020-07-09 03:00:00 30.1 19 Nordeste 35 Nordeste 0 -- -- 14
2020-07-09 02:00:00 30.3 18 Nordeste 39 Nordeste 0 -- -- 14
2020-07-09 01:00:00 30.6 13 Norte 36 Norte 0 -- -- 14
2020-07-09 00:00:00 31 14 Norte 30 Norte 0 -- -- 14
2020-07-08 23:00:00 31.4 18 Norte 32 Norte 0 -- -- 13
2020-07-08 22:00:00 31.5 12 Norte 26 Nordeste 0 -- -- 13
2020-07-08 21:00:00 31.9 9 Norte 19 Nordeste 0 -- -- 12
2020-07-08 20:00:00 33.5 6 Sudoeste 18 Sudeste 0 -- -- 14
2020-07-08 19:00:00 34.9 6 Sur 21 Sudoeste 0 -- -- 15
2020-07-08 18:00:00 35.5 7 Este 19 Este 0 -- -- 15
2020-07-08 17:00:00 34.6 7 Noroeste 20 Sudeste 0 -- -- 20
2020-07-08 16:00:00 35.3 8 Este 26 Nordeste 0 -- -- 16
2020-07-08 15:00:00 37 9 Oeste 33 Norte 0 -- -- 11
2020-07-08 14:00:00 35.8 17 Norte 42 Norte 0 -- -- 12
2020-07-08 13:00:00 36.1 15 Noroeste 33 Nordeste 0 -- -- 11
2020-07-08 12:00:00 35.5 14 Norte 38 Norte 0 -- -- 12
2020-07-08 11:00:00 35 17 Norte 35 Norte 0 -- -- 12
2020-07-08 10:00:00 34.1 18 Norte 33 Nordeste 0 -- -- 12
2020-07-08 09:00:00 33 21 Norte 34 Nordeste 0 -- -- 13
2020-07-08 08:00:00 32.2 17 Norte 32 Nordeste 0 -- -- 14
2020-07-08 07:00:00 31.9 15 Norte 35 Nordeste 0 -- -- 14
2020-07-08 06:00:00 31.7 14 Norte 39 Norte 0 -- -- 14
2020-07-08 05:00:00 32.2 18 Norte 38 Nordeste 0 -- -- 14
2020-07-08 04:00:00 32.2 17 Norte 35 Norte 0 -- -- 14
2020-07-08 03:00:00 32.4 11 Norte 36 Este 0 -- -- 14
2020-07-08 02:00:00 32.6 16 Norte 32 Noroeste 0 -- -- 14
2020-07-08 01:00:00 33 14 Norte 37 Norte 0 -- -- 14
2020-07-08 00:00:00 33.1 14 Norte 31 Noroeste 0 -- -- 14
2020-07-07 23:00:00 32.8 15 Norte 40 Nordeste 0 -- -- 15
2020-07-07 22:00:00 32.8 12 Nordeste 32 Este 0 -- -- 15
2020-07-07 21:00:00 33 0 Calma 12 Nordeste 0 -- -- 21
2020-07-07 20:00:00 34.8 5 Oeste 15 Noroeste 0 -- -- 21
2020-07-07 19:00:00 36.1 6 Oeste 18 Noroeste 0 -- -- 18
2020-07-07 18:00:00 36.4 6 Sudoeste 19 Norte 0 -- -- 23
2020-07-07 17:00:00 37.5 7 Oeste 22 Noroeste 0 -- -- 17
2020-07-07 16:00:00 37.2 11 Noroeste 26 Noroeste 0 -- -- 14
2020-07-07 15:00:00 36.7 14 Noroeste 24 Noroeste 0 -- -- 13
2020-07-07 14:00:00 37 8 Oeste 23 Noroeste 0 -- -- 15
2020-07-07 13:00:00 36.3 9 Sudoeste 21 Sudoeste 0 -- -- 15
2020-07-07 12:00:00 35.7 6 Oeste 18 Sudoeste 0 -- -- 14
2020-07-07 11:00:00 34.8 7 Oeste 14 Oeste 0 -- -- 14
2020-07-07 10:00:00 32.2 3 Sudoeste 12 Nordeste 0 -- -- 16
2020-07-07 09:00:00 31.7 4 Oeste 12 Sudoeste 0 -- -- 17
2020-07-07 08:00:00 30.8 6 Sur 11 Sudoeste 0 -- -- 15
2020-07-07 07:00:00 30.2 5 Sur 8 Sur 0 -- -- 17
2020-07-07 06:00:00 30.1 0 Calma 9 Este 0 -- -- 18
2020-07-07 05:00:00 30.4 6 Este 9 Este 0 -- -- 17
2020-07-07 04:00:00 31.2 5 Sur 8 Sur 0 -- -- 16
2020-07-07 03:00:00 30.9 5 Sur 8 Sur 0 -- -- 17
2020-07-07 02:00:00 31.1 5 Sur 8 Sur 0 -- -- 18
2020-07-07 01:00:00 31 6 Sur 8 Sur 0 -- -- 18
2020-07-07 00:00:00 31 4 Sur 8 Sudoeste 0 -- -- 18
2020-07-06 23:00:00 31.6 5 Sur 9 Sudoeste 0 -- -- 17
2020-07-06 22:00:00 31.8 4 Sudeste 7 Sur 0 -- -- 17
2020-07-06 21:00:00 32.9 0 Calma 9 Noroeste 0 -- -- 20
2020-07-06 20:00:00 34.2 3 Norte 12 Nordeste 0 -- -- 21
2020-07-06 19:00:00 35.3 6 Nordeste 15 Noroeste 0 -- -- 28
2020-07-06 18:00:00 35.6 8 Norte 16 Nordeste 0 -- -- 29
2020-07-06 17:00:00 36.1 6 Noroeste 17 Sudoeste 0 -- -- 25
2020-07-06 16:00:00 36.1 9 Sudoeste 22 Noroeste 0 -- -- 26
2020-07-06 15:00:00 37 8 Este 17 Este 0 -- -- 15
2020-07-06 14:00:00 35.1 11 Norte 22 Nordeste 0 -- -- 16
2020-07-06 13:00:00 34.3 9 Norte 30 Sudoeste 0 -- -- 22
2020-07-06 12:00:00 34.9 9 Nordeste 24 Nordeste 0 -- -- 15
2020-07-06 11:00:00 33.9 10 Noroeste 27 Nordeste 0 -- -- 17
2020-07-06 10:00:00 33 6 Sudeste 20 Noroeste 0 -- -- 16
2020-07-06 09:00:00 30 2 Nordeste 13 Nordeste 0 -- -- 18
2020-07-06 08:00:00 28.8 4 Nordeste 13 Este 0 -- -- 18
2020-07-06 07:00:00 29.5 2 Sudeste 9 Nordeste 0 -- -- 17
2020-07-06 06:00:00 28.7 5 Este 17 Nordeste 0 -- -- 18
2020-07-06 05:00:00 28.5 10 Este 20 Nordeste 0 -- -- 17
2020-07-06 04:00:00 28.7 6 Este 14 Sudeste 0 -- -- 17
2020-07-06 03:00:00 28.6 6 Nordeste 13 Nordeste 0 -- -- 17
2020-07-06 02:00:00 28.8 4 Este 13 Este 0 -- -- 17
2020-07-06 01:00:00 29.6 6 Este 12 Nordeste 0 -- -- 18
2020-07-06 00:00:00 29.9 0 Calma 8 Sur 0 -- -- 18
2020-07-05 23:00:00 30 0 Calma 9 Nordeste 0 -- -- 17
2020-07-05 22:00:00 30.4 2 Sudeste 12 Sudoeste 0 -- -- 17
2020-07-05 21:00:00 32.1 5 Sur 13 Oeste 0 -- -- 17
2020-07-05 20:00:00 33.7 5 Noroeste 13 Noroeste 0 -- -- 15
2020-07-05 19:00:00 33.5 6 Norte 19 Nordeste 0 -- -- 20
2020-07-05 18:00:00 32.9 9 Nordeste 19 Nordeste 0 -- -- 27
2020-07-05 17:00:00 34.8 6 Noroeste 17 Noroeste 0 -- -- 23
2020-07-05 16:00:00 34.3 8 Noroeste 24 Norte 0 -- -- 23
2020-07-05 15:00:00 33 7 Nordeste 25 Norte 0 -- -- 21
2020-07-05 14:00:00 32.8 8 Oeste 23 Norte 0 -- -- 19
2020-07-05 13:00:00 33.8 10 Norte 22 Norte 0 -- -- 16
2020-07-05 12:00:00 31.4 9 Nordeste 18 Nordeste 0 -- -- 22
2020-07-05 11:00:00 31.4 9 Nordeste 19 Nordeste 0 -- -- 19
2020-07-05 10:00:00 31.4 2 Oeste 10 Norte 0 -- -- 17
2020-07-05 09:00:00 29.7 3 Nordeste 12 Este 0 -- -- 18
2020-07-05 08:00:00 27.8 3 Nordeste 7 Este 0 -- -- 19
2020-07-05 07:00:00 27.9 4 Este 9 Este 0 -- -- 19
2020-07-05 06:00:00 27.8 5 Este 9 Nordeste 0 -- -- 20
2020-07-05 05:00:00 28 6 Este 9 Este 0 -- -- 19
2020-07-05 04:00:00 28.6 0 Calma 4 Sudeste 0 -- -- 18
2020-07-05 03:00:00 28.7 2 Sudeste 6 Sudeste 0 -- -- 18
2020-07-05 02:00:00 28.3 4 Sur 8 Nordeste 0 -- -- 20
2020-07-05 01:00:00 28.8 5 Este 8 Nordeste 0 -- -- 21
2020-07-05 00:00:00 28.9 5 Este 9 Nordeste 0 -- -- 23
2020-07-04 23:00:00 28.9 4 Este 6 Sur 0 -- -- 23
2020-07-04 22:00:00 28.9 4 Sudeste 6 Sudeste 0 -- -- 18
2020-07-04 21:00:00 29.5 4 Sur 8 Norte 0 -- -- 22
2020-07-04 20:00:00 28.7 4 Este 15 Nordeste 0 -- -- 33
2020-07-04 19:00:00 31.3 9 Norte 15 Nordeste 0 -- -- 39
2020-07-04 18:00:00 32.1 6 Noroeste 16 Noroeste 0 -- -- 30
2020-07-04 17:00:00 29.9 10 Nordeste 22 Nordeste 0 -- -- 41
2020-07-04 16:00:00 31.2 9 Nordeste 18 Oeste 0 -- -- 39
2020-07-04 15:00:00 31.4 8 Norte 19 Oeste 0 -- -- 38
2020-07-04 14:00:00 31.5 8 Norte 18 Nordeste 0 -- -- 33
2020-07-04 13:00:00 30.7 9 Nordeste 18 Nordeste 0 -- -- 29
2020-07-04 12:00:00 31.6 11 Nordeste 17 Nordeste 0 -- -- 23
2020-07-04 11:00:00 31.1 8 Nordeste 13 Nordeste 0 -- -- 18
2020-07-04 10:00:00 31.9 4 Oeste 8 Noroeste 0 -- -- 14
2020-07-04 09:00:00 29.4 0 Calma 5 Este 0 -- -- 15
2020-07-04 08:00:00 28.6 5 Este 11 Este 0 -- -- 15
2020-07-04 07:00:00 28.2 5 Este 10 Nordeste 0 -- -- 15
2020-07-04 06:00:00 28.1 4 Este 9 Este 0 -- -- 15
2020-07-04 05:00:00 28.5 0 Calma 7 Este 0 -- -- 15
2020-07-04 04:00:00 28.1 0 Calma 8 Nordeste 0 -- -- 14
2020-07-04 03:00:00 28.4 3 Sudeste 9 Sudeste 0 -- -- 15
2020-07-04 02:00:00 28.2 3 Sudeste 8 Sudeste 0 -- -- 15
2020-07-04 01:00:00 28.3 0 Calma 8 Sudeste 0 -- -- 15
2020-07-04 00:00:00 28.3 0 Calma 8 Este 0 -- -- 16
2020-07-03 23:00:00 28.9 5 Este 9 Este 0 -- -- 16
2020-07-03 22:00:00 28.4 0 Calma -- -- 0 -- -- 21
2020-07-03 21:00:00 29.6 0 Calma 11 Nordeste 0 -- -- 19
2020-07-03 20:00:00 31.1 5 Nordeste 13 Nordeste 0 -- -- 27
2020-07-03 19:00:00 32.8 5 Noroeste 15 Noroeste 0 -- -- 20
2020-07-03 18:00:00 32.8 8 Oeste 18 Noroeste 0 -- -- 23
2020-07-03 17:00:00 31.3 8 Norte 22 Nordeste 0 -- -- 31
2020-07-03 16:00:00 31 11 Nordeste 25 Nordeste 0 -- -- 37
2020-07-03 15:00:00 31.3 10 Nordeste 19 Oeste 0 -- -- 37
2020-07-03 14:00:00 31.5 12 Nordeste 22 Nordeste 0 -- -- 27
2020-07-03 13:00:00 32.7 9 Nordeste 17 Norte 0 -- -- 17
2020-07-03 12:00:00 33.9 5 Oeste 12 Oeste 0 -- -- 15
2020-07-03 11:00:00 32.9 3 Oeste 12 Noroeste 0 -- -- 15
2020-07-03 10:00:00 31.6 3 Oeste 6 Noroeste 0 -- -- 16
2020-07-03 09:00:00 29.4 0 Calma -- -- 0 -- -- 17
2020-07-03 08:00:00 28.2 2 Este 7 Nordeste 0 -- -- 18
2020-07-03 07:00:00 27.7 0 Calma 6 Sudeste 0 -- -- 19
2020-07-03 06:00:00 27.8 4 Este 8 Nordeste 0 -- -- 19
2020-07-03 05:00:00 28.4 0 Calma 8 Sudeste 0 -- -- 18
2020-07-03 04:00:00 28.6 5 Sudeste 11 Este 0 -- -- 17
2020-07-03 03:00:00 28.8 5 Nordeste 10 Nordeste 0 -- -- 18
2020-07-03 02:00:00 29.1 0 Calma 7 Sur 0 -- -- 18
2020-07-03 01:00:00 29.2 0 Calma 9 Este 0 -- -- 20
2020-07-03 00:00:00 29 4 Este 9 Sur 0 -- -- 20
2020-07-02 23:00:00 29.5 4 Este 11 Este 0 -- -- 20
2020-07-02 22:00:00 30.1 4 Este 7 Este 0 -- -- 19
2020-07-02 21:00:00 30.8 2 Sur 6 Nordeste 0 -- -- 22
2020-07-02 20:00:00 32.3 3 Norte 8 Nordeste 0 -- -- 23
2020-07-02 19:00:00 32 8 Oeste 22 Nordeste 0 -- -- 21
2020-07-02 18:00:00 34.5 7 Noroeste 20 Norte 0 -- -- 24
2020-07-02 17:00:00 32.3 6 Oeste 37 Noroeste 0 -- -- 23
2020-07-02 16:00:00 30.5 7 Este 24 Nordeste 0 -- -- 33
2020-07-02 15:00:00 34.4 8 Oeste 20 Norte 0 -- -- 22
2020-07-02 14:00:00 33.7 12 Norte 28 Nordeste 0 -- -- 17
2020-07-02 13:00:00 33.6 9 Noroeste 16 Noroeste 0 -- -- 14
2020-07-02 12:00:00 32.1 6 Norte 14 Nordeste 0 -- -- 18
2020-07-02 11:00:00 32.9 0 Calma -- -- 0 -- -- 15
2020-07-02 10:00:00 30.5 0 Calma -- -- 0 -- -- 15
2020-07-02 09:00:00 29.6 0 Calma 10 Sudeste 0 -- -- 14
2020-07-02 08:00:00 28.7 5 Sudeste 13 Noroeste 0 -- -- 15
2020-07-02 07:00:00 28.8 5 Nordeste 9 Nordeste 0 -- -- 17
2020-07-02 06:00:00 28.5 3 Nordeste 9 Nordeste 0 -- -- 18
2020-07-02 05:00:00 28.5 3 Sur 8 Este 0 -- -- 18
2020-07-02 04:00:00 28.5 5 Este 10 Este 0 -- -- 20
2020-07-02 03:00:00 28.3 5 Este 11 Este 0 -- -- 21
2020-07-02 02:00:00 29.5 6 Este 10 Nordeste 0 -- -- 19
2020-07-02 01:00:00 29 8 Sur 10 Sur 0 -- -- 16
2020-07-02 00:00:00 29 0 Calma 10 Este 0 -- -- 22
2020-07-01 23:00:00 29.6 6 Este 10 Nordeste 0 -- -- 26
2020-07-01 22:00:00 29.4 5 Sur 10 Sur 0 -- -- 19
2020-07-01 21:00:00 28.5 4 Sur 13 Nordeste 0 -- -- 36
2020-07-01 20:00:00 30.9 4 Noroeste 16 Este 0 -- -- 35
2020-07-01 19:00:00 30.8 11 Nordeste 16 Nordeste 0 -- -- 40
2020-07-01 18:00:00 32.1 12 Nordeste 17 Nordeste 0 -- -- 36
2020-07-01 17:00:00 31.5 10 Nordeste 19 Nordeste 0 -- -- 32
2020-07-01 16:00:00 32.9 4 Norte 21 Norte 0 -- -- 22
2020-07-01 15:00:00 34.6 9 Oeste 18 Sudoeste 0 -- -- 19
2020-07-01 14:00:00 32.7 8 Nordeste 17 Noroeste 0 -- -- 25
2020-07-01 13:00:00 33.8 6 Oeste 21 Norte 0 -- -- 12
2020-07-01 12:00:00 30.7 10 Nordeste 21 Este 0 -- -- 10
2020-07-01 11:00:00 29.9 12 Nordeste 21 Norte 0 -- -- 9
2020-07-01 10:00:00 28.4 11 Nordeste 20 Este 0 -- -- 9
2020-07-01 09:00:00 25.8 18 Nordeste 22 Nordeste 0 -- -- 11
2020-07-01 08:00:00 26 0 Calma 18 Nordeste 0 -- -- 10
2020-07-01 07:00:00 27.4 5 Este 15 Nordeste 0 -- -- 9
2020-07-01 06:00:00 27.2 0 Calma 10 Sur 0 -- -- 10
2020-07-01 05:00:00 27 4 Sur 12 Sudoeste 0 -- -- 10
2020-07-01 04:00:00 26.5 9 Este 15 Nordeste 0 -- -- 9
2020-07-01 03:00:00 25.1 11 Este 15 Este 0 -- -- 21
2020-07-01 02:00:00 26.4 5 Nordeste 8 Norte 0 -- -- 9
2020-07-01 01:00:00 26 4 Sudeste 13 Este 0 -- -- 9
2020-07-01 00:00:00 25.2 7 Sudeste 21 Este 0 -- -- 25
2020-06-30 23:00:00 24.5 10 Este 18 Nordeste 0 -- -- 39
2020-06-30 22:00:00 22.5 10 Este 17 Este 0 -- -- 60
2020-06-30 21:00:00 23.5 10 Este 18 Nordeste 0 -- -- 58
2020-06-30 20:00:00 27.4 4 Oeste 12 Noroeste 0 -- -- 48
2020-06-30 19:00:00 28.7 7 Oeste 15 Oeste 0 -- -- 44
2020-06-30 18:00:00 26.3 10 Nordeste 19 Nordeste 0 -- -- 52
2020-06-30 17:00:00 26.8 10 Nordeste 24 Norte 0 -- -- 50
2020-06-30 16:00:00 27.2 11 Nordeste 22 Nordeste 0 -- -- 48
2020-06-30 15:00:00 27.8 9 Nordeste 18 Nordeste 0 -- -- 47
2020-06-30 14:00:00 27 6 Nordeste 18 Norte 0 -- -- 46
2020-06-30 13:00:00 26.2 11 Nordeste 20 Nordeste 0 -- -- 44
2020-06-30 12:00:00 26.7 8 Nordeste 15 Nordeste 0 -- -- 38
2020-06-30 11:00:00 26.8 8 Norte 14 Norte 0 -- -- 24
2020-06-30 10:00:00 24.8 3 Noroeste 7 Noroeste 0 -- -- 24
2020-06-30 09:00:00 21.5 0 Calma 6 Sudoeste 0 -- -- 27
2020-06-30 08:00:00 20.7 2 Nordeste 5 Este 0 -- -- 27
2020-06-30 07:00:00 20.5 0 Calma 5 Sudeste 0 -- -- 35
2020-06-30 06:00:00 20 0 Calma 9 Nordeste 0 -- -- 33
2020-06-30 05:00:00 20.7 4 Este 10 Este 0 -- -- 36
2020-06-30 04:00:00 21.1 3 Este 8 Este 0 -- -- 30
2020-06-30 03:00:00 21 3 Sudeste 6 Sur 0 -- -- 37
2020-06-30 02:00:00 21.2 0 Calma 10 Este 0 -- -- 39
2020-06-30 01:00:00 21.2 6 Este 11 Nordeste 0 -- -- 54
2020-06-30 00:00:00 21.8 6 Este 8 Sudeste 0 -- -- 47
2020-06-29 23:00:00 21.2 4 Sur 6 Sudoeste 0 -- -- 41
2020-06-29 22:00:00 22.2 0 Calma 5 Noroeste 0 -- -- 59
2020-06-29 21:00:00 23.4 2 Norte 13 Nordeste 0 -- -- 57
2020-06-29 20:00:00 25.9 4 Noroeste 15 Oeste 0 -- -- 50
2020-06-29 19:00:00 26.2 7 Norte 21 Nordeste 0 -- -- 50
2020-06-29 18:00:00 25.4 11 Nordeste 24 Nordeste 0 -- -- 52
2020-06-29 17:00:00 26.5 6 Oeste 16 Noroeste 0 -- -- 50
2020-06-29 16:00:00 26.4 7 Oeste 31 Sur 0 -- -- 51
2020-06-29 15:00:00 25.4 11 Norte 21 Noroeste 0 -- -- 53
2020-06-29 14:00:00 24.5 9 Norte 23 Nordeste 0 -- -- 54
2020-06-29 13:00:00 25.2 6 Noroeste 15 Noroeste 0 -- -- 49
2020-06-29 12:00:00 23.8 9 Oeste 15 Nordeste 0 -- -- 50
2020-06-29 11:00:00 23.8 6 Nordeste 12 Nordeste 0 -- -- 42
2020-06-29 10:00:00 23.8 0 Calma 7 Nordeste 0 -- -- 28
2020-06-29 09:00:00 21.2 0 Calma -- -- 0 -- -- 27
2020-06-29 08:00:00 20.3 0 Calma 8 Nordeste 0 -- -- 26
2020-06-29 07:00:00 19.9 6 Este 9 Este 0 -- -- 26
2020-06-29 06:00:00 19.9 3 Este 8 Sur 0 -- -- 28
2020-06-29 05:00:00 19.6 6 Sur 9 Sur 0 -- -- 24
2020-06-29 04:00:00 20.3 4 Sudeste 6 Este 0 -- -- 23
2020-06-29 03:00:00 20.6 0 Calma 6 Sudeste 0 -- -- 28
2020-06-29 02:00:00 20.5 5 Sur 8 Sur 0 -- -- 21
2020-06-29 01:00:00 20.4 0 Calma 7 Sur 0 -- -- 33
2020-06-29 00:00:00 20.8 4 Este 8 Nordeste 0 -- -- 35
2020-06-28 23:00:00 21.1 4 Este 13 Sudoeste 0 -- -- 35
2020-06-28 22:00:00 21.2 0 Calma 8 Este 0 -- -- 58
2020-06-28 21:00:00 22.3 6 Nordeste 13 Nordeste 0 -- -- 57
2020-06-28 20:00:00 25.5 8 Noroeste 15 Norte 0 -- -- 48
2020-06-28 19:00:00 25.5 8 Nordeste 20 Norte 0 -- -- 47
2020-06-28 18:00:00 26.3 8 Nordeste 21 Norte 0 -- -- 46
2020-06-28 17:00:00 27.4 8 Noroeste 19 Oeste 0 -- -- 45
2020-06-28 16:00:00 27.2 8 Oeste 24 Nordeste 0 -- -- 46
2020-06-28 15:00:00 25.8 13 Norte 24 Nordeste 0 -- -- 48
2020-06-28 14:00:00 26.4 13 Nordeste 26 Norte 0 -- -- 46
2020-06-28 13:00:00 26.7 7 Oeste 16 Noroeste 0 -- -- 38
2020-06-28 12:00:00 26.2 7 Norte 19 Nordeste 0 -- -- 31
2020-06-28 11:00:00 25.5 11 Nordeste 18 Norte 0 -- -- 29
2020-06-28 10:00:00 24.6 3 Noroeste 8 Sur 0 -- -- 23
2020-06-28 09:00:00 21.7 5 Sur 8 Sur 0 -- -- 25
2020-06-28 08:00:00 20.7 0 Calma 13 Este 0 -- -- 31
2020-06-28 07:00:00 20.9 8 Nordeste 15 Este 0 -- -- 34
2020-06-28 06:00:00 21.5 0 Calma -- -- 0 -- -- 27
2020-06-28 05:00:00 21.4 0 Calma -- -- 0 -- -- 22
2020-06-28 04:00:00 21.9 0 Calma 4 Nordeste 0 -- -- 16
2020-06-28 03:00:00 22 3 Sudeste 11 Nordeste 0 -- -- 22
2020-06-28 02:00:00 21.1 0 Calma -- -- 0 -- -- 33
2020-06-28 01:00:00 21.3 0 Calma 9 Este 0 -- -- 41
2020-06-28 00:00:00 21.5 0 Calma -- -- 0 -- -- 44
2020-06-27 23:00:00 21.3 0 Calma 6 Nordeste 0 -- -- 48
2020-06-27 22:00:00 22.1 0 Calma 9 Norte 0 -- -- 50
2020-06-27 21:00:00 23.6 5 Norte 10 Oeste 0 -- -- 54
2020-06-27 20:00:00 25.9 5 Oeste 17 Nordeste 0 -- -- 44
2020-06-27 19:00:00 24.4 11 Nordeste 20 Nordeste 0 -- -- 55
2020-06-27 18:00:00 25 12 Nordeste 19 Nordeste 0 -- -- 53
2020-06-27 17:00:00 26.7 9 Norte 20 Norte 0 -- -- 49
2020-06-27 16:00:00 27.5 9 Oeste 22 Nordeste 0 -- -- 47
2020-06-27 15:00:00 26 12 Nordeste 19 Nordeste 0 -- -- 49
2020-06-27 14:00:00 25.7 10 Nordeste 19 Nordeste 0 -- -- 50
2020-06-27 13:00:00 26.5 8 Noroeste 16 Noroeste 0 -- -- 43
2020-06-27 12:00:00 25.3 7 Norte 17 Nordeste 0 -- -- 42
2020-06-27 11:00:00 24.2 11 Nordeste 15 Nordeste 0 -- -- 28
2020-06-27 10:00:00 24.9 2 Noroeste 5 Noroeste 0 -- -- 14
2020-06-27 09:00:00 21.9 0 Calma 5 Este 0 -- -- 17
2020-06-27 08:00:00 21.4 0 Calma 7 Sudoeste 0 -- -- 17
2020-06-27 07:00:00 21.1 3 Sur 6 Sur 0 -- -- 14
2020-06-27 06:00:00 20.4 5 Sur 7 Sur 0 -- -- 18
2020-06-27 05:00:00 20.1 4 Sur 7 Este 0 -- -- 25
2020-06-27 04:00:00 19.5 5 Este 7 Este 0 -- -- 33
2020-06-27 03:00:00 19.7 4 Este 8 Este 0 -- -- 36
2020-06-27 02:00:00 19.5 5 Sur 9 Sur 0 -- -- 34
2020-06-27 01:00:00 19.8 4 Sur 8 Nordeste 0 -- -- 41
2020-06-27 00:00:00 20.3 5 Este 11 Este 0 -- -- 44
2020-06-26 23:00:00 20.1 2 Nordeste 9 Este 0 -- -- 48
2020-06-26 22:00:00 19.7 0 Calma 4 Sudoeste 0 -- -- 62
2020-06-26 21:00:00 20.8 0 Calma 15 Nordeste 0 -- -- 62
2020-06-26 20:00:00 20.9 12 Nordeste 17 Nordeste 0 -- -- 63
2020-06-26 19:00:00 23 10 Nordeste 18 Oeste 0 -- -- 56
2020-06-26 18:00:00 24.2 9 Noroeste 23 Norte 0 -- -- 53
2020-06-26 17:00:00 24.3 8 Nordeste 23 Nordeste 0 -- -- 52
2020-06-26 16:00:00 24.2 11 Nordeste 29 Norte 0 -- -- 54
2020-06-26 15:00:00 24.5 10 Noroeste 20 Noroeste 0 -- -- 55
2020-06-26 14:00:00 23.1 9 Nordeste 28 Nordeste 0 -- -- 57
2020-06-26 13:00:00 24.3 7 Noroeste 18 Norte 0 -- -- 51
2020-06-26 12:00:00 24.4 8 Noroeste 14 Noroeste 0 -- -- 45
2020-06-26 11:00:00 23.5 6 Nordeste 15 Nordeste 0 -- -- 35
2020-06-26 10:00:00 23.2 3 Noroeste 10 Norte 0 -- -- 19
2020-06-26 09:00:00 20.3 0 Calma 8 Nordeste 0 -- -- 17
2020-06-26 08:00:00 19.9 8 Nordeste 12 Este 0 -- -- 18
2020-06-26 07:00:00 19.2 6 Este 15 Nordeste 0 -- -- 17
2020-06-26 06:00:00 19.4 4 Sur 9 Sur 0 -- -- 14
2020-06-26 05:00:00 17.7 5 Sur 12 Sur 0 -- -- 34
2020-06-26 04:00:00 17.4 5 Sur 10 Este 0 -- -- 41
2020-06-26 03:00:00 18.1 5 Este 8 Este 0 -- -- 49
2020-06-26 02:00:00 17.5 4 Sur 8 Sur 0 -- -- 56
2020-06-26 01:00:00 18.1 5 Sur 6 Sudeste 0 -- -- 47
2020-06-26 00:00:00 18.3 0 Calma 6 Nordeste 0 -- -- 53
2020-06-25 23:00:00 18.8 4 Este 10 Este 0 -- -- 49
2020-06-25 22:00:00 18.2 0 Calma 5 Sudoeste 0 -- -- 61
2020-06-25 21:00:00 19.9 4 Noroeste 15 Norte 0 -- -- 66
2020-06-25 20:00:00 21.7 7 Nordeste 15 Oeste 0 -- -- 59
2020-06-25 19:00:00 24.1 6 Oeste 16 Oeste 0 -- -- 52
2020-06-25 18:00:00 23.9 8 Noroeste 19 Norte 0 -- -- 55
2020-06-25 17:00:00 23.7 11 Norte 29 Norte 0 -- -- 48
2020-06-25 16:00:00 24.2 6 Sudoeste 20 Noroeste 0 -- -- 52
2020-06-25 15:00:00 24.1 9 Oeste 28 Nordeste 0 -- -- 53
2020-06-25 14:00:00 22.6 12 Norte 26 Nordeste 0 -- -- 57
2020-06-25 13:00:00 22.2 11 Nordeste 23 Nordeste 0 -- -- 57
2020-06-25 12:00:00 22.9 5 Oeste 13 Oeste 0 -- -- 49
2020-06-25 11:00:00 20.9 5 Noroeste 11 Oeste 0 -- -- 46
2020-06-25 10:00:00 20.1 4 Norte 15 Nordeste 0 -- -- 48
2020-06-25 09:00:00 19.1 7 Nordeste 13 Nordeste 0 -- -- 39
2020-06-25 08:00:00 18.1 0 Calma -- -- 0 -- -- 28
2020-06-25 07:00:00 18.7 0 Calma -- -- 0 -- -- 24
2020-06-25 06:00:00 19.2 2 Sur 16 Nordeste 0 -- -- 23
2020-06-25 05:00:00 19.7 9 Este 16 Este 0 -- -- 32
2020-06-25 04:00:00 18.9 0 Calma 6 Nordeste 0 -- -- 26
2020-06-25 03:00:00 19.7 0 Calma 6 Sudeste 0 -- -- 28
2020-06-25 02:00:00 19.9 4 Este 13 Nordeste 0 -- -- 28
2020-06-25 01:00:00 19.8 5 Este 12 Este 0 -- -- 26
2020-06-25 00:00:00 19.5 4 Sur 7 Sur 0 -- -- 48
2020-06-24 23:00:00 20.2 0 Calma -- -- 0 -- -- 37
2020-06-24 22:00:00 21.1 0 Calma 12 Nordeste 0 -- -- 43
2020-06-24 21:00:00 21.8 4 Nordeste 10 Nordeste 0 -- -- 50
2020-06-24 20:00:00 23.3 6 Noroeste 12 Noroeste 0 -- -- 55
2020-06-24 19:00:00 23.5 5 Oeste 21 Nordeste 0 -- -- 56
2020-06-24 18:00:00 22.9 7 Nordeste 22 Nordeste 0 -- -- 56
2020-06-24 17:00:00 23.2 11 Norte 18 Nordeste 0 -- -- 56
2020-06-24 16:00:00 23.3 10 Oeste 20 Noroeste 0 -- -- 57
2020-06-24 15:00:00 23.6 7 Sudoeste 21 Nordeste 0 -- -- 58
2020-06-24 14:00:00 23.2 10 Norte 26 Norte 0 -- -- 58
2020-06-24 13:00:00 24.7 12 Norte 21 Nordeste 0 -- -- 48
2020-06-24 12:00:00 25.7 6 Oeste 14 Noroeste 0 -- -- 35
2020-06-24 11:00:00 25 9 Noroeste 15 Oeste 0 -- -- 24
2020-06-24 10:00:00 23.6 10 Nordeste 15 Nordeste 0 -- -- 21
2020-06-24 09:00:00 21 0 Calma 8 Sur 0 -- -- 20
2020-06-24 08:00:00 19.5 4 Sur 8 Sur 0 -- -- 21
2020-06-24 07:00:00 19 3 Sudoeste 8 Sudoeste 0 -- -- 25
2020-06-24 06:00:00 19.3 3 Este 7 Nordeste 0 -- -- 26
2020-06-24 05:00:00 19.3 5 Nordeste 8 Nordeste 0 -- -- 25
2020-06-24 04:00:00 19.2 4 Sur 8 Sur 0 -- -- 33
2020-06-24 03:00:00 19.1 4 Sur 7 Sur 0 -- -- 29
2020-06-24 02:00:00 18.9 4 Este 8 Este 0 -- -- 41
2020-06-24 01:00:00 19.5 7 Nordeste 10 Este 0 -- -- 40
2020-06-24 00:00:00 20 3 Sudeste 6 Sudeste 0 -- -- 44
2020-06-23 23:00:00 19.7 3 Sur 6 Noroeste 0 -- -- 47
2020-06-23 22:00:00 20.4 2 Este 10 Nordeste 0 -- -- 68
2020-06-23 21:00:00 21.8 4 Norte 10 Noroeste 0 -- -- 62
2020-06-23 20:00:00 24.4 6 Oeste 14 Noroeste 0 -- -- 57
2020-06-23 19:00:00 24 7 Nordeste 23 Norte 0 -- -- 59
2020-06-23 18:00:00 24.5 10 Norte 25 Norte 0 -- -- 57
2020-06-23 17:00:00 25.9 10 Norte 33 Norte 0 -- -- 51
2020-06-23 16:00:00 27.1 9 Noroeste 19 Oeste 0 -- -- 48
2020-06-23 15:00:00 26.5 8 Norte 25 Noroeste 0 -- -- 48
2020-06-23 14:00:00 26.7 7 Oeste 19 Oeste 0 -- -- 44
2020-06-23 13:00:00 25.5 9 Nordeste 20 Noroeste 0 -- -- 39
2020-06-23 12:00:00 26.3 5 Oeste 17 Oeste 0 -- -- 22
2020-06-23 11:00:00 25.7 7 Noroeste 14 Noroeste 0 -- -- 21
2020-06-23 10:00:00 23.9 5 Norte 10 Nordeste 0 -- -- 25
2020-06-23 09:00:00 20.7 0 Calma -- -- 0 -- -- 28
2020-06-23 08:00:00 20 0 Calma -- -- 0 -- -- 26
2020-06-23 07:00:00 19.8 0 Calma -- -- 0 -- -- 23
2020-06-23 06:00:00 20.1 0 Calma -- -- 0 -- -- 28
2020-06-23 05:00:00 20 0 Calma -- -- 0 -- -- 30
2020-06-23 04:00:00 19.5 0 Calma -- -- 0 -- -- 35
2020-06-23 03:00:00 19.5 0 Calma -- -- 0 -- -- 35
2020-06-23 02:00:00 19.5 0 Calma 5 Este 0 -- -- 48
2020-06-23 01:00:00 19.9 4 Este 8 Este 0 -- -- 53
2020-06-23 00:00:00 20.2 6 Este 10 Nordeste 0 -- -- 61
2020-06-22 23:00:00 20.3 3 Este 9 Este 0 -- -- 58
2020-06-22 22:00:00 20.9 0 Calma 10 Sudoeste 0 -- -- 61
2020-06-22 21:00:00 22.6 4 Norte 15 Nordeste 0 -- -- 57
2020-06-22 20:00:00 23.6 9 Nordeste 16 Nordeste 0 -- -- 55
2020-06-22 19:00:00 24.7 9 Norte 19 Norte 0 -- -- 52
2020-06-22 18:00:00 25.4 9 Norte 21 Nordeste 0 -- -- 51
2020-06-22 17:00:00 25.9 10 Norte 24 Norte 0 -- -- 49
2020-06-22 16:00:00 26.6 9 Noroeste 26 Noroeste 0 -- -- 47
2020-06-22 15:00:00 26 10 Norte 23 Nordeste 0 -- -- 48
2020-06-22 14:00:00 25.8 7 Nordeste 22 Nordeste 0 -- -- 45
2020-06-22 13:00:00 25.5 10 Norte 23 Norte 0 -- -- 42
2020-06-22 12:00:00 25.4 9 Norte 18 Norte 0 -- -- 35
2020-06-22 11:00:00 25.7 0 Calma 12 Oeste 0 -- -- 23
2020-06-22 10:00:00 24 0 Calma -- -- 0 -- -- 24
2020-06-22 09:00:00 21 0 Calma -- -- 0 -- -- 29
2020-06-22 08:00:00 20.8 0 Calma -- -- 0 -- -- 25
2020-06-22 07:00:00 20.8 0 Calma -- -- 0 -- -- 23
2020-06-22 06:00:00 21.1 0 Calma 7 Este 0 -- -- 18
2020-06-22 05:00:00 20.5 2 Sudeste 8 Este 0 -- -- 35
2020-06-22 04:00:00 21.1 5 Este 9 Este 0 -- -- 22
2020-06-22 03:00:00 20.9 5 Sur 8 Sur 0 -- -- 29
2020-06-22 02:00:00 20.8 5 Sudeste 8 Sur 0 -- -- 38
2020-06-22 01:00:00 21 4 Sur 6 Sur 0 -- -- 35
2020-06-22 00:00:00 21.5 6 Este 10 Nordeste 0 -- -- 47
2020-06-21 23:00:00 21.9 4 Sudeste 9 Nordeste 0 -- -- 38
2020-06-21 22:00:00 22.3 3 Este 6 Nordeste 0 -- -- 45
2020-06-21 21:00:00 23.7 0 Calma 11 Nordeste 0 -- -- 44
2020-06-21 20:00:00 23.8 9 Nordeste 17 Nordeste 0 -- -- 50
2020-06-21 19:00:00 25.1 9 Nordeste 19 Nordeste 0 -- -- 45
2020-06-21 18:00:00 25.7 6 Norte 22 Norte 0 -- -- 46
2020-06-21 17:00:00 25.8 11 Norte 24 Norte 0 -- -- 43
2020-06-21 16:00:00 25.3 13 Norte 28 Nordeste 0 -- -- 46
2020-06-21 15:00:00 25.8 9 Nordeste 24 Norte 0 -- -- 39
2020-06-21 14:00:00 25.3 10 Norte 24 Norte 0 -- -- 46
2020-06-21 13:00:00 24.2 10 Nordeste 22 Norte 0 -- -- 50
2020-06-21 12:00:00 25.5 6 Norte 14 Oeste 0 -- -- 35
2020-06-21 11:00:00 25.1 4 Noroeste 10 Noroeste 0 -- -- 23
2020-06-21 10:00:00 24.2 4 Oeste 9 Nordeste 0 -- -- 18
2020-06-21 09:00:00 21.8 0 Calma -- -- 0 -- -- 16
2020-06-21 08:00:00 21.2 0 Calma 6 Sur 0 -- -- 15
2020-06-21 07:00:00 20.9 4 Sudeste 8 Este 0 -- -- 15
2020-06-21 06:00:00 19.7 0 Calma -- -- 0 -- -- 25
2020-06-21 05:00:00 19.7 0 Calma 7 Sur 0 -- -- 29
2020-06-21 04:00:00 20.4 2 Sur 6 Este 0 -- -- 22
2020-06-21 03:00:00 21.4 0 Calma 8 Nordeste 0 -- -- 16
2020-06-21 02:00:00 20.3 0 Calma 8 Sur 0 -- -- 31
2020-06-21 01:00:00 19.9 0 Calma 5 Sudeste 0 -- -- 45
2020-06-21 00:00:00 19.9 0 Calma 7 Nordeste 0 -- -- 55
2020-06-20 23:00:00 20.3 4 Este 12 Este 0 -- -- 57
2020-06-20 22:00:00 20.2 2 Este 6 Este 0 -- -- 59
2020-06-20 21:00:00 21 4 Oeste 14 Nordeste 0 -- -- 69
2020-06-20 20:00:00 21.5 10 Nordeste 15 Nordeste 0 -- -- 66
2020-06-20 19:00:00 24.1 5 Oeste 19 Norte 0 -- -- 60
2020-06-20 18:00:00 24.2 8 Noroeste 20 Norte 0 -- -- 60
2020-06-20 17:00:00 23.6 5 Norte 29 Nordeste 0 -- -- 61
2020-06-20 16:00:00 23 7 Norte 24 Nordeste 0 -- -- 60
2020-06-20 15:00:00 23.5 10 Oeste 21 Oeste 0 -- -- 61
2020-06-20 14:00:00 23.3 8 Noroeste 20 Noroeste 0 -- -- 60
2020-06-20 13:00:00 22.7 8 Noroeste 18 Noroeste 0 -- -- 57
2020-06-20 12:00:00 21.8 7 Noroeste 19 Nordeste 0 -- -- 57
2020-06-20 11:00:00 21.9 5 Noroeste 12 Noroeste 0 -- -- 34
2020-06-20 10:00:00 20.1 5 Noroeste 10 Noroeste 0 -- -- 33
2020-06-20 09:00:00 17.2 0 Calma 2 Noroeste 0 -- -- 39
2020-06-20 08:00:00 16.7 2 Nordeste 15 Nordeste 0 -- -- 34
2020-06-20 07:00:00 16.4 3 Sur 4 Sudeste 0 -- -- 35
2020-06-20 06:00:00 16 0 Calma 8 Norte 0 -- -- 46
2020-06-20 05:00:00 15.9 0 Calma 11 Nordeste 0 -- -- 43
2020-06-20 04:00:00 15.7 5 Este 8 Este 0 -- -- 52
2020-06-20 03:00:00 16.6 7 Este 12 Este 0 -- -- 49
2020-06-20 02:00:00 16.7 6 Este 11 Sur 0 -- -- 46
2020-06-20 01:00:00 15.3 5 Sur 9 Sudeste 0 -- -- 57
2020-06-20 00:00:00 15.8 5 Sudoeste 8 Sudoeste 0 -- -- 57
2020-06-19 23:00:00 16.6 7 Este 10 Este 0 -- -- 61
2020-06-19 22:00:00 16.9 4 Oeste 11 Oeste 0 -- -- 80
2020-06-19 21:00:00 18.9 5 Sudoeste 13 Noroeste 0 -- -- 71
2020-06-19 20:00:00 20.9 8 Noroeste 17 Sudoeste 0 -- -- 64
2020-06-19 19:00:00 20.8 12 Sudoeste 18 Sur 0 -- -- 58
2020-06-19 18:00:00 21.3 9 Sudoeste 26 Sudoeste 0 -- -- 53
2020-06-19 17:00:00 21.6 11 Sudoeste 23 Sudoeste 0 -- -- 52
2020-06-19 16:00:00 21.4 8 Sudoeste 22 Sudoeste 0 -- -- 54
2020-06-19 15:00:00 20.9 8 Sudoeste 21 Sudoeste 0 -- -- 64
2020-06-19 14:00:00 20.1 10 Sudoeste 22 Sur 0 -- -- 64
2020-06-19 13:00:00 20.6 10 Oeste 23 Noroeste 0 -- -- 62
2020-06-19 12:00:00 19.1 6 Sur 15 Oeste 0 -- -- 65
2020-06-19 11:00:00 17.9 4 Oeste 11 Sudoeste 0 -- -- 66
2020-06-19 10:00:00 16.1 2 Norte 8 Sudoeste 0 -- -- 73
2020-06-19 09:00:00 13.4 2 Norte 6 Sur 0 -- -- 86
2020-06-19 08:00:00 12.3 0 Calma 6 Norte 0 -- -- 86
2020-06-19 07:00:00 12.2 3 Nordeste 7 Nordeste 0 -- -- 87
2020-06-19 06:00:00 12.3 2 Norte 7 Sur 0 -- -- 88
2020-06-19 05:00:00 12.3 4 Sur 8 Sur 0 -- -- 84
2020-06-19 04:00:00 12.8 0 Calma 9 Nordeste 0 -- -- 84
2020-06-19 03:00:00 13 0 Calma 8 Nordeste 0 -- -- 82
2020-06-19 02:00:00 13.3 2 Nordeste 10 Nordeste 0 -- -- 82
2020-06-19 01:00:00 13.6 2 Nordeste 7 Sur 0 -- -- 78
2020-06-19 00:00:00 14.2 3 Sudeste 10 Nordeste 0 -- -- 69
2020-06-18 23:00:00 14.9 5 Nordeste 10 Nordeste 0 -- -- 61
2020-06-18 22:00:00 15.8 5 Sudeste 28 Nordeste 0 -- -- 61
2020-06-18 21:00:00 16.4 11 Norte 28 Nordeste 0 -- -- 50
2020-06-18 20:00:00 18.5 8 Norte 18 Norte 0 -- -- 47
2020-06-18 19:00:00 18.4 8 Norte 18 Sudeste 0 -- -- 70
2020-06-18 18:00:00 17.4 6 Sudoeste 15 Sudoeste 0 -- -- 80
2020-06-18 17:00:00 17.8 5 Sudoeste 20 Sudoeste 0 -- -- 76
2020-06-18 16:00:00 16.6 10 Sudoeste 19 Sur 0 -- -- 86
2020-06-18 15:00:00 18.1 3 Norte 16 Nordeste 0 -- -- 79
2020-06-18 14:00:00 18.8 6 Sudoeste 18 Nordeste 0 -- -- 72
2020-06-18 13:00:00 19.2 11 Noroeste 25 Oeste 0 -- -- 70
2020-06-18 12:00:00 18.5 9 Sudoeste 18 Sudoeste 0 -- -- 70
2020-06-18 11:00:00 17.8 4 Noroeste 14 Noroeste 0 -- -- 60
2020-06-18 10:00:00 15.8 8 Noroeste 21 Noroeste 0 -- -- 67
2020-06-18 09:00:00 14.4 8 Oeste 20 Oeste 0 -- -- 74
2020-06-18 08:00:00 14.1 7 Oeste 17 Noroeste 0 -- -- 79
2020-06-18 07:00:00 13.7 5 Nordeste 21 Noroeste 0 -- -- 78
2020-06-18 06:00:00 14 8 Noroeste 18 Noroeste 0 -- -- 79
2020-06-18 05:00:00 13.9 8 Oeste 24 Oeste 0 -- -- 84
2020-06-18 04:00:00 13.6 4 Sudeste 10 Sudoeste 0 -- -- 78
2020-06-18 03:00:00 14.4 5 Norte 18 Norte 0 -- -- 82
2020-06-18 02:00:00 14.3 0 Calma 14 Oeste 0 -- -- 83
2020-06-18 01:00:00 15 8 Sudoeste 17 Sudoeste 0 -- -- 85
2020-06-18 00:00:00 15.7 9 Sudoeste 16 Sudoeste 0 -- -- 89
2020-06-17 23:00:00 16.3 8 Sudoeste 15 Sudoeste 0 -- -- 90
2020-06-17 22:00:00 16.9 6 Sudoeste 12 Sudoeste 0 -- -- 88
2020-06-17 21:00:00 17.4 6 Sudoeste 17 Sudoeste 0 -- -- 87
2020-06-17 20:00:00 18.5 7 Oeste 19 Oeste 0 -- -- 84
2020-06-17 19:00:00 21.1 7 Oeste 22 Oeste 0 -- -- 72
2020-06-17 18:00:00 22 9 Oeste 24 Oeste 0 -- -- 69
2020-06-17 17:00:00 22 9 Oeste 30 Noroeste 0 -- -- 69
2020-06-17 16:00:00 24.1 10 Oeste 27 Noroeste 0 -- -- 59
2020-06-17 15:00:00 23.8 12 Sudoeste 29 Oeste 0 -- -- 60
2020-06-17 14:00:00 23.7 10 Oeste 22 Noroeste 0 -- -- 58
2020-06-17 13:00:00 21.4 12 Sudoeste 52 Noroeste 0 -- -- 71
2020-06-17 12:00:00 23 7 Oeste 37 Oeste 0 -- -- 59
2020-06-17 11:00:00 23.6 14 Oeste 49 Noroeste 0 -- -- 45
2020-06-17 10:00:00 22 22 Oeste 46 Oeste 0 -- -- 50
2020-06-17 09:00:00 21.1 18 Sudoeste 49 Sudoeste 0 -- -- 54
2020-06-17 08:00:00 20.8 19 Oeste 44 Sudoeste 0 -- -- 54
2020-06-17 07:00:00 20.2 18 Oeste 48 Oeste 0 -- -- 57
2020-06-17 06:00:00 20.7 20 Oeste 47 Sudoeste 0 -- -- 55
2020-06-17 05:00:00 20.8 15 Oeste 52 Sudoeste 0 -- -- 55
2020-06-17 04:00:00 20.9 19 Oeste 51 Oeste 0 -- -- 54
2020-06-17 03:00:00 20.8 22 Oeste 50 Oeste 0 -- -- 54
2020-06-17 02:00:00 19.7 18 Oeste 59 Norte 0 -- -- 56
2020-06-17 01:00:00 20.6 25 Noroeste 60 Noroeste 0 -- -- 52
2020-06-17 00:00:00 20.9 30 Noroeste 61 Norte 0 -- -- 52
2020-06-16 23:00:00 21.3 26 Noroeste 68 Norte 0 -- -- 49
2020-06-16 22:00:00 21.1 32 Norte 66 Norte 0 -- -- 48
2020-06-16 21:00:00 21.3 26 Norte 67 Norte 0 -- -- 51
2020-06-16 20:00:00 21.5 28 Noroeste 59 Noroeste 0 -- -- 48
2020-06-16 19:00:00 21.8 30 Noroeste 68 Nordeste 0 -- -- 47
2020-06-16 18:00:00 22.5 25 Noroeste 64 Noroeste 0 -- -- 44
2020-06-16 17:00:00 23.6 24 Noroeste 51 Noroeste 0 -- -- 41
2020-06-16 16:00:00 23.9 23 Noroeste 57 Noroeste 0 -- -- 40
2020-06-16 15:00:00 25.4 23 Noroeste 58 Noroeste 0 -- -- 38
2020-06-16 14:00:00 25.5 22 Noroeste 56 Noroeste 0 -- -- 38
2020-06-16 13:00:00 25 21 Noroeste 50 Noroeste 0 -- -- 38
2020-06-16 12:00:00 24.5 20 Noroeste 54 Noroeste 0 -- -- 40
2020-06-16 11:00:00 24.4 20 Noroeste 51 Noroeste 0 -- -- 41
2020-06-16 10:00:00 24.4 21 Noroeste 47 Noroeste 0 -- -- 39
2020-06-16 09:00:00 23.8 16 Noroeste 62 Noroeste 0 -- -- 40
2020-06-16 08:00:00 23.3 19 Noroeste 57 Noroeste 0 -- -- 40
2020-06-16 07:00:00 23.4 18 Noroeste 46 Norte 0 -- -- 39
2020-06-16 06:00:00 22.8 21 Norte 48 Norte 0 -- -- 40
2020-06-16 05:00:00 22.9 24 Norte 51 Norte 0 -- -- 41
2020-06-16 04:00:00 23.4 18 Noroeste 40 Noroeste 0 -- -- 38
2020-06-16 03:00:00 22.8 15 Noroeste 54 Norte 0 -- -- 39
2020-06-16 02:00:00 22.7 18 Noroeste 51 Noroeste 0 -- -- 39
2020-06-16 01:00:00 23.1 22 Noroeste 50 Noroeste 0 -- -- 38
2020-06-16 00:00:00 23.1 25 Noroeste 58 Noroeste 0 -- -- 37
2020-06-15 23:00:00 22.4 21 Noroeste 49 Noroeste 0 -- -- 38
2020-06-15 22:00:00 23.3 18 Noroeste 57 Noroeste 0 -- -- 36
2020-06-15 21:00:00 22.9 23 Noroeste 59 Noroeste 0 -- -- 38
2020-06-15 20:00:00 22.9 20 Noroeste 63 Noroeste 0 -- -- 39
2020-06-15 19:00:00 22.5 30 Norte 66 Oeste 0 -- -- 41
2020-06-15 18:00:00 22.1 27 Norte 54 Norte 0 -- -- 46
2020-06-15 17:00:00 23.9 12 Noroeste 43 Noroeste 0 -- -- 43
2020-06-15 16:00:00 23.6 21 Noroeste 47 Noroeste 0 -- -- 45
2020-06-15 15:00:00 23.6 18 Noroeste 43 Norte 0 -- -- 47
2020-06-15 14:00:00 24.1 11 Nordeste 46 Noroeste 0 -- -- 49
2020-06-15 13:00:00 23.5 15 Noroeste 48 Noroeste 0 -- -- 48
2020-06-15 12:00:00 23.9 18 Noroeste 47 Noroeste 0 -- -- 47
2020-06-15 11:00:00 23.2 14 Noroeste 35 Noroeste 0 -- -- 50
2020-06-15 10:00:00 23 8 Oeste 28 Noroeste 0 -- -- 50
2020-06-15 09:00:00 22.5 10 Oeste 28 Sudoeste 0 -- -- 48
2020-06-15 08:00:00 23.3 13 Oeste 36 Noroeste 0 -- -- 43
2020-06-15 07:00:00 21 8 Oeste 31 Oeste 0 -- -- 53
2020-06-15 06:00:00 22.1 15 Oeste 40 Oeste 0 -- -- 48
2020-06-15 05:00:00 22.4 16 Noroeste 46 Norte 0 -- -- 47
2020-06-15 04:00:00 21.7 15 Oeste 42 Noroeste 0 -- -- 51
2020-06-15 03:00:00 21.8 15 Noroeste 42 Noroeste 0 -- -- 51
2020-06-15 02:00:00 21.4 21 Noroeste 44 Oeste 0.2 -- -- 54
2020-06-15 01:00:00 21.1 16 Oeste 33 Oeste 0.2 -- -- 56
2020-06-15 00:00:00 19 8 Sudoeste 17 Sudoeste 0.8 -- -- 72
2020-06-14 23:00:00 20.9 8 Sudoeste 22 Oeste 0.2 -- -- 58
2020-06-14 22:00:00 21.7 11 Sudoeste 24 Noroeste 0 -- -- 58
2020-06-14 21:00:00 23.1 10 Oeste 25 Oeste 0 -- -- 40
2020-06-14 20:00:00 23.7 6 Sudoeste 16 Sudoeste 0 -- -- 29
2020-06-14 19:00:00 24.5 8 Sudoeste 18 Sudoeste 0 -- -- 31
2020-06-14 18:00:00 24.2 8 Sudoeste 13 Sudoeste 0 -- -- 26
2020-06-14 17:00:00 23.2 8 Oeste 15 Oeste 0 -- -- 27
2020-06-14 16:00:00 22.7 7 Noroeste 19 Sudoeste 0 -- -- 50
2020-06-14 15:00:00 21.8 9 Sudoeste 22 Nordeste 0 -- -- 54
2020-06-14 14:00:00 22.3 7 Sudoeste 20 Norte 0 -- -- 44
2020-06-14 13:00:00 21.4 9 Norte 18 Norte 0 -- -- 52
2020-06-14 12:00:00 20.1 12 Nordeste 21 Nordeste 0 -- -- 51
2020-06-14 11:00:00 18.8 12 Nordeste 22 Nordeste 0 -- -- 52
2020-06-14 10:00:00 18.7 12 Nordeste 17 Nordeste 0 -- -- 41
2020-06-14 09:00:00 18 8 Nordeste 15 Nordeste 0 -- -- 33
2020-06-14 08:00:00 16.1 0 Calma 18 Nordeste 0 -- -- 30
2020-06-14 07:00:00 15.2 5 Nordeste 19 Este 0 -- -- 34
2020-06-14 06:00:00 17.2 5 Este 13 Este 0 -- -- 22
2020-06-14 05:00:00 16.2 8 Este 15 Nordeste 0 -- -- 33
2020-06-14 04:00:00 16.1 10 Este 16 Este 0 -- -- 41
2020-06-14 03:00:00 16.4 9 Este 16 Nordeste 0 -- -- 41
2020-06-14 02:00:00 15.9 7 Nordeste 18 Este 0 -- -- 45
2020-06-14 01:00:00 15.1 6 Nordeste 15 Nordeste 0 -- -- 45
2020-06-14 00:00:00 12.8 0 Calma 12 Este 0 -- -- 91
2020-06-13 23:00:00 13.6 6 Sur 15 Este 0 -- -- 85
2020-06-13 22:00:00 14 5 Nordeste 10 Oeste 0 -- -- 85
2020-06-13 21:00:00 15.5 6 Oeste 12 Oeste 0 -- -- 82
2020-06-13 20:00:00 17 9 Oeste 23 Noroeste 0 -- -- 77
2020-06-13 19:00:00 17.9 10 Nordeste 19 Noroeste 0 -- -- 71
2020-06-13 18:00:00 20.8 10 Oeste 22 Noroeste 0 -- -- 63
2020-06-13 17:00:00 20.8 8 Oeste 23 Noroeste 0 -- -- 62
2020-06-13 16:00:00 20.3 7 Norte 23 Noroeste 0 -- -- 62
2020-06-13 15:00:00 21.1 8 Oeste 23 Noroeste 0 -- -- 56
2020-06-13 14:00:00 21.4 8 Oeste 24 Sudoeste 0 -- -- 40
2020-06-13 13:00:00 20.2 9 Oeste 19 Noroeste 0 -- -- 49
2020-06-13 12:00:00 19 11 Oeste 23 Oeste 0 -- -- 57
2020-06-13 11:00:00 17.8 6 Oeste 15 Nordeste 0 -- -- 46
2020-06-13 10:00:00 16 8 Sudeste 29 Sudoeste 0 -- -- 66
2020-06-13 09:00:00 14.1 9 Nordeste 18 Oeste 0 -- -- 77
2020-06-13 08:00:00 15.2 10 Sudoeste 19 Sudoeste 0 -- -- 43
2020-06-13 07:00:00 11.6 6 Sudoeste 12 Sudoeste 0 -- -- 85
2020-06-13 06:00:00 12.2 10 Sudoeste 15 Sur 0 -- -- 79
2020-06-13 05:00:00 11.9 3 Noroeste 15 Sudoeste 0 -- -- 92
2020-06-13 04:00:00 12.2 11 Sudoeste 32 Sur 0 -- -- 91
2020-06-13 03:00:00 12.1 11 Este 30 Sur 0 -- -- 87
2020-06-13 02:00:00 14.5 5 Noroeste 21 Sudoeste 0 -- -- 78
2020-06-13 01:00:00 14.5 14 Este 25 Sur 0 -- -- 82
2020-06-13 00:00:00 13.5 8 Sudoeste 32 Sudoeste 0 -- -- 87
2020-06-12 23:00:00 17.6 8 Sur 24 Sudoeste 0 -- -- 47
2020-06-12 22:00:00 17.6 7 Oeste 24 Sudoeste 0 -- -- 38
2020-06-12 21:00:00 18 12 Oeste 32 Noroeste 0 -- -- 38
2020-06-12 20:00:00 17.8 12 Oeste 23 Oeste 0 -- -- 46
2020-06-12 19:00:00 17.6 6 Oeste 22 Sudoeste 0 -- -- 55
2020-06-12 18:00:00 18.5 6 Oeste 20 Sudoeste 0 -- -- 62
2020-06-12 17:00:00 19.9 8 Oeste 26 Noroeste 0 -- -- 45
2020-06-12 16:00:00 18.3 8 Noroeste 24 Sudoeste 0 -- -- 60
2020-06-12 15:00:00 19 9 Sudoeste 23 Sudoeste 0 -- -- 64
2020-06-12 14:00:00 18.3 8 Oeste 16 Norte 0 -- -- 62
2020-06-12 13:00:00 15.9 10 Sudoeste 21 Sudoeste 0 -- -- 79
2020-06-12 12:00:00 15.5 7 Sudoeste 17 Sur 0 -- -- 79
2020-06-12 11:00:00 14.7 6 Nordeste 12 Nordeste 0 -- -- 85
2020-06-12 10:00:00 14.1 4 Noroeste 15 Sudoeste 0 -- -- 81
2020-06-12 09:00:00 14.3 9 Noroeste 17 Norte 0 -- -- 74
2020-06-12 08:00:00 12.2 4 Sudoeste 9 Sudeste 0 -- -- 92
2020-06-12 07:00:00 11.9 4 Sudeste 10 Nordeste 0 -- -- 93
2020-06-12 06:00:00 12.3 7 Nordeste 12 Nordeste 0 -- -- 91
2020-06-12 05:00:00 14 6 Oeste 25 Sudoeste 0 -- -- 77
2020-06-12 04:00:00 13.1 8 Sur 19 Sudoeste 0 -- -- 76
2020-06-12 03:00:00 13 10 Sudoeste 24 Oeste 0 -- -- 94
2020-06-12 02:00:00 16.3 15 Sur 27 Oeste 0 -- -- 76
2020-06-12 01:00:00 14.2 8 Sudoeste 23 Sudoeste 0 -- -- 91
2020-06-12 00:00:00 17.6 13 Sudoeste 31 Sudoeste 0 -- -- 66
2020-06-11 23:00:00 15.5 9 Nordeste 24 Sudoeste 0 -- -- 84
2020-06-11 22:00:00 18.1 16 Sudoeste 30 Sudoeste 0 -- -- 63
2020-06-11 21:00:00 18.2 10 Sudoeste 26 Sudoeste 0 -- -- 68
2020-06-11 20:00:00 19.4 10 Sudoeste 22 Sudoeste 0 -- -- 57
2020-06-11 19:00:00 17.5 9 Sudoeste 16 Sudoeste 0 -- -- 71
2020-06-11 18:00:00 16.7 8 Oeste 20 Oeste 0 -- -- 82
2020-06-11 17:00:00 19.4 10 Oeste 24 Noroeste 0 -- -- 71
2020-06-11 16:00:00 18.8 7 Nordeste 24 Oeste 0 -- -- 73
2020-06-11 15:00:00 20 10 Oeste 25 Oeste 0 -- -- 69
2020-06-11 14:00:00 19.8 10 Noroeste 20 Noroeste 0 -- -- 71
2020-06-11 13:00:00 19.9 8 Oeste 20 Sudoeste 0 -- -- 71
2020-06-11 12:00:00 18.9 7 Norte 16 Nordeste 0 -- -- 74
2020-06-11 11:00:00 20.8 8 Oeste 15 Sudoeste 0 -- -- 59
2020-06-11 10:00:00 16.1 5 Oeste 21 Este 0 -- -- 84
2020-06-11 09:00:00 15 5 Sudoeste 13 Sudoeste 0 -- -- 79
2020-06-11 08:00:00 14.5 2 Oeste 14 Sudoeste 0 -- -- 87
2020-06-11 07:00:00 16.5 8 Sudoeste 13 Sudoeste 0 -- -- 63
2020-06-11 06:00:00 14.5 2 Norte 10 Sudoeste 0 -- -- 85
2020-06-11 05:00:00 18 9 Sudoeste 13 Sudoeste 0 -- -- 57
2020-06-11 04:00:00 16.9 7 Sudoeste 13 Sudoeste 0 -- -- 63
2020-06-11 03:00:00 17.3 5 Sudoeste 9 Sur 0 -- -- 61
2020-06-11 02:00:00 14.5 3 Oeste 8 Noroeste 0 -- -- 86
2020-06-11 01:00:00 18.5 4 Sudoeste 20 Nordeste 0 -- -- 63
2020-06-11 00:00:00 18.4 8 Sur 13 Sur 0 -- -- 59